Time,TemperatureF,DewpointF,PressureIn,WindDirection,WindDirectionDegrees,WindSpeedMPH,WindSpeedGustMPH,Humidity,HourlyPrecipIn,Conditions,Clouds,dailyrainin,SoftwareType,DateUTC
2013-06-23 00:02:00,63.0,53.0,29.85,NW,324,0.0,4.0,69,-99.99,,,-99.99,,2013-06-23 07:02:00,
2013-06-23 00:12:00,63.0,53.0,29.84,NW,324,2.0,4.0,70,-99.99,,,-99.99,,2013-06-23 07:12:00,
2013-06-23 00:22:00,63.0,53.0,29.84,NW,324,0.0,2.0,70,-99.99,,,-99.99,,2013-06-23 07:22:00,
2013-06-23 00:33:00,63.0,53.0,29.84,NW,324,1.0,3.0,70,-99.99,,,-99.99,,2013-06-23 07:33:00,
2013-06-23 00:42:00,63.0,53.0,29.83,NW,324,0.0,2.0,70,-99.99,,,-99.99,,2013-06-23 07:42:00,
2013-06-23 00:53:00,63.0,53.0,29.84,NW,324,0.0,5.0,70,-99.99,,,-99.99,,2013-06-23 07:53:00,
2013-06-23 01:02:00,63.0,53.0,29.84,NW,324,0.0,4.0,70,-99.99,,,-99.99,,2013-06-23 08:02:00,
2013-06-23 01:22:00,62.0,52.0,29.83,NW,324,0.0,2.0,71,-99.99,,,-99.99,,2013-06-23 08:22:00,
2013-06-23 01:33:00,62.0,52.0,29.83,NW,324,0.0,2.0,71,-99.99,,,-99.99,,2013-06-23 08:33:00,
2013-06-23 01:42:00,62.0,53.0,29.82,NW,324,0.0,2.0,72,-99.99,,,-99.99,,2013-06-23 08:42:00,
2013-06-23 01:53:00,62.0,53.0,29.82,NW,324,0.0,2.0,72,-99.99,,,-99.99,,2013-06-23 08:53:00,
2013-06-23 02:02:00,62.0,53.0,29.81,NW,324,0.0,3.0,72,-99.99,,,-99.99,,2013-06-23 09:02:00,
2013-06-23 02:12:00,62.0,52.0,29.81,NW,324,0.0,3.0,71,-99.99,,,-99.99,,2013-06-23 09:12:00,
2013-06-23 02:22:00,62.0,53.0,29.81,NW,324,0.0,1.0,72,-99.99,,,-99.99,,2013-06-23 09:22:00,
2013-06-23 02:34:00,62.0,53.0,29.81,NW,324,0.0,1.0,72,-99.99,,,-99.99,,2013-06-23 09:34:00,
2013-06-23 02:43:00,62.0,53.0,29.80,NW,324,0.0,1.0,72,-99.99,,,-99.99,,2013-06-23 09:43:00,
2013-06-23 02:53:00,61.0,52.0,29.80,NW,324,1.0,3.0,71,-99.99,,,-99.99,,2013-06-23 09:53:00,
2013-06-23 03:02:00,61.0,52.0,29.80,NW,324,0.0,1.0,71,-99.99,,,-99.99,,2013-06-23 10:02:00,
2013-06-23 03:11:00,61.0,52.0,29.80,NW,324,1.0,2.0,71,-99.99,,,-99.99,,2013-06-23 10:11:00,
2013-06-23 03:22:00,61.0,52.0,29.80,NW,324,0.0,3.0,71,-99.99,,,-99.99,,2013-06-23 10:22:00,
2013-06-23 03:34:00,61.0,52.0,29.80,NW,324,0.0,2.0,71,-99.99,,,-99.99,,2013-06-23 10:34:00,
2013-06-23 03:43:00,61.0,52.0,29.79,NW,324,0.0,3.0,71,-99.99,,,-99.99,,2013-06-23 10:43:00,
2013-06-23 03:52:00,61.0,52.0,29.79,NW,324,0.0,0.0,71,-99.99,,,-99.99,,2013-06-23 10:52:00,
2013-06-23 04:01:00,61.0,51.0,29.79,NW,324,0.0,0.0,70,-99.99,,,-99.99,,2013-06-23 11:01:00,
2013-06-23 04:11:00,61.0,52.0,29.79,NW,324,0.0,0.0,72,-99.99,,,-99.99,,2013-06-23 11:11:00,
2013-06-23 04:22:00,60.0,51.0,29.79,NW,324,0.0,0.0,71,-99.99,,,-99.99,,2013-06-23 11:22:00,
2013-06-23 04:33:00,60.0,51.0,29.79,NW,324,0.0,1.0,73,-99.99,,,-99.99,,2013-06-23 11:33:00,
2013-06-23 04:43:00,60.0,52.0,29.79,NW,324,0.0,1.0,74,-99.99,,,-99.99,,2013-06-23 11:43:00,
2013-06-23 04:53:00,60.0,52.0,29.79,NW,324,0.0,0.0,75,-99.99,,,-99.99,,2013-06-23 11:53:00,
2013-06-23 05:01:00,60.0,52.0,29.79,NW,324,0.0,0.0,76,-99.99,,,-99.99,,2013-06-23 12:01:00,
2013-06-23 05:11:00,60.0,53.0,29.79,NW,324,0.0,1.0,77,-99.99,,,-99.99,,2013-06-23 12:11:00,
2013-06-23 05:33:00,59.0,52.0,29.78,NW,324,0.0,0.0,79,-99.99,,,-99.99,,2013-06-23 12:33:00,
2013-06-23 05:53:00,59.0,52.0,29.78,NW,324,0.0,1.0,79,-99.99,,,-99.99,,2013-06-23 12:53:00,
2013-06-23 06:01:00,59.0,53.0,29.78,NW,324,0.0,0.0,80,-99.99,,,-99.99,,2013-06-23 13:01:00,
2013-06-23 06:23:00,59.0,54.0,29.78,NW,324,0.0,0.0,83,-99.99,,,-99.99,,2013-06-23 13:23:00,
2013-06-23 06:33:00,59.0,54.0,29.78,NW,324,0.0,0.0,84,-99.99,,,-99.99,,2013-06-23 13:33:00,
2013-06-23 06:43:00,59.0,54.0,29.78,NW,324,0.0,0.0,85,-99.99,,,-99.99,,2013-06-23 13:43:00,
2013-06-23 06:53:00,60.0,55.0,29.78,NW,324,0.0,0.0,85,-99.99,,,-99.99,,2013-06-23 13:53:00,
2013-06-23 07:11:00,60.0,55.0,29.78,NW,324,0.0,0.0,85,-99.99,,,-99.99,,2013-06-23 14:11:00,
2013-06-23 07:21:00,60.0,55.0,29.78,NW,324,0.0,0.0,83,-99.99,,,-99.99,,2013-06-23 14:21:00,
2013-06-23 07:33:00,60.0,55.0,29.78,NW,324,0.0,0.0,83,-99.99,,,-99.99,,2013-06-23 14:33:00,
2013-06-23 07:52:00,61.0,55.0,29.78,NW,324,0.0,1.0,82,-99.99,,,-99.99,,2013-06-23 14:52:00,
2013-06-23 08:05:00,61.0,54.0,29.78,NW,324,0.0,0.0,79,-99.99,,,-99.99,,2013-06-23 15:05:00,
2013-06-23 08:11:00,61.0,55.0,29.78,NW,324,0.0,1.0,81,-99.99,,,-99.99,,2013-06-23 15:11:00,
2013-06-23 08:22:00,62.0,56.0,29.78,NW,324,0.0,1.0,80,-99.99,,,-99.99,,2013-06-23 15:22:00,
2013-06-23 08:34:00,62.0,56.0,29.78,SSE,164,1.0,2.0,80,-99.99,,,-99.99,,2013-06-23 15:34:00,
2013-06-23 08:43:00,62.0,56.0,29.78,SSE,163,0.0,2.0,80,-99.99,,,-99.99,,2013-06-23 15:43:00,
2013-06-23 08:52:00,63.0,57.0,29.78,SSE,163,0.0,1.0,80,-99.99,,,-99.99,,2013-06-23 15:52:00,
2013-06-23 09:05:00,64.0,57.0,29.78,SSE,163,0.0,1.0,77,-99.99,,,-99.99,,2013-06-23 16:05:00,
2013-06-23 09:11:00,64.0,57.0,29.77,South,188,0.0,4.0,77,-99.99,,,-99.99,,2013-06-23 16:11:00,
2013-06-23 09:34:00,65.0,56.0,29.77,SW,223,0.0,3.0,73,-99.99,,,-99.99,,2013-06-23 16:34:00,
2013-06-23 09:42:00,65.0,56.0,29.77,SSE,156,1.0,4.0,73,-99.99,,,-99.99,,2013-06-23 16:42:00,
2013-06-23 09:52:00,66.0,56.0,29.77,SSE,156,0.0,3.0,70,-99.99,,,-99.99,,2013-06-23 16:52:00,
2013-06-23 10:03:00,66.0,56.0,29.77,SSE,156,0.0,3.0,70,-99.99,,,-99.99,,2013-06-23 17:03:00,
2013-06-23 10:11:00,66.0,56.0,29.76,South,189,1.0,4.0,71,-99.99,,,-99.99,,2013-06-23 17:11:00,
2013-06-23 10:22:00,67.0,56.0,29.76,SSW,211,1.0,3.0,67,-99.99,,,-99.99,,2013-06-23 17:22:00,
2013-06-23 10:33:00,68.0,56.0,29.75,WSW,237,0.0,5.0,65,-99.99,,,-99.99,,2013-06-23 17:33:00,
2013-06-23 10:43:00,68.0,56.0,29.75,NNW,337,0.0,5.0,66,-99.99,,,-99.99,,2013-06-23 17:43:00,
2013-06-23 10:52:00,68.0,54.0,29.75,WSW,258,1.0,4.0,62,-99.99,,,-99.99,,2013-06-23 17:52:00,
2013-06-23 11:01:00,68.0,54.0,29.75,WSW,256,1.0,3.0,61,-99.99,,,-99.99,,2013-06-23 18:01:00,
2013-06-23 11:11:00,67.0,56.0,29.75,ENE,71,1.0,3.0,69,-99.99,,,-99.99,,2013-06-23 18:11:00,
2013-06-23 11:22:00,66.0,56.0,29.74,ENE,69,1.0,3.0,69,-99.99,,,-99.99,,2013-06-23 18:22:00,
2013-06-23 11:34:00,66.0,57.0,29.74,North,350,0.0,3.0,72,-99.99,,,-99.99,,2013-06-23 18:34:00,
2013-06-23 11:42:00,66.0,56.0,29.74,North,351,0.0,2.0,70,-99.99,,,-99.99,,2013-06-23 18:42:00,
2013-06-23 11:53:00,66.0,56.0,29.74,North,351,0.0,1.0,71,-99.99,,,-99.99,,2013-06-23 18:53:00,
2013-06-23 12:01:00,66.0,56.0,29.74,North,351,0.0,4.0,70,-99.99,,,-99.99,,2013-06-23 19:01:00,
2013-06-23 12:11:00,66.0,57.0,29.74,North,351,0.0,1.0,72,-99.99,,,-99.99,,2013-06-23 19:11:00,
2013-06-23 12:21:00,66.0,56.0,29.74,North,351,0.0,2.0,69,-99.99,,,-99.99,,2013-06-23 19:21:00,
2013-06-23 12:32:00,66.0,56.0,29.73,West,265,0.0,3.0,70,-99.99,,,-99.99,,2013-06-23 19:32:00,
2013-06-23 12:53:00,66.0,57.0,29.72,WSW,255,0.0,2.0,73,-99.99,,,-99.99,,2013-06-23 19:53:00,
2013-06-23 13:01:00,67.0,57.0,29.72,WSW,255,0.0,1.0,71,-99.99,,,-99.99,,2013-06-23 20:01:00,
2013-06-23 13:11:00,68.0,57.0,29.72,WSW,255,1.0,3.0,68,-99.99,,,-99.99,,2013-06-23 20:11:00,
2013-06-23 13:23:00,68.0,56.0,29.72,WSW,255,0.0,3.0,66,-99.99,,,-99.99,,2013-06-23 20:23:00,
2013-06-23 13:33:00,69.0,58.0,29.72,SSE,154,1.0,3.0,69,-99.99,,,-99.99,,2013-06-23 20:33:00,
2013-06-23 13:42:00,69.0,57.0,29.72,SSE,154,0.0,3.0,66,-99.99,,,-99.99,,2013-06-23 20:42:00,
2013-06-23 13:52:00,70.0,58.0,29.71,NNW,336,0.0,3.0,66,-99.99,,,-99.99,,2013-06-23 20:52:00,
2013-06-23 14:01:00,70.0,58.0,29.71,NNW,336,1.0,2.0,65,-99.99,,,-99.99,,2013-06-23 21:01:00,
2013-06-23 14:11:00,70.0,58.0,29.71,NNW,336,1.0,2.0,65,-99.99,,,-99.99,,2013-06-23 21:11:00,
2013-06-23 14:22:00,70.0,58.0,29.71,NE,52,2.0,5.0,65,-99.99,,,-99.99,,2013-06-23 21:22:00,
2013-06-23 14:33:00,70.0,59.0,29.71,ENE,63,0.0,3.0,67,-99.99,,,-99.99,,2013-06-23 21:33:00,
2013-06-23 14:43:00,69.0,58.0,29.71,NE,56,0.0,4.0,68,-99.99,,,-99.99,,2013-06-23 21:43:00,
2013-06-23 14:52:00,69.0,58.0,29.70,NE,56,0.0,3.0,68,-99.99,,,-99.99,,2013-06-23 21:52:00,
2013-06-23 15:01:00,70.0,59.0,29.70,ENE,61,1.0,3.0,67,-99.99,,,-99.99,,2013-06-23 22:01:00,
2013-06-23 15:11:00,70.0,59.0,29.70,ENE,63,1.0,2.0,67,-99.99,,,-99.99,,2013-06-23 22:11:00,
2013-06-23 15:22:00,70.0,59.0,29.70,ENE,57,2.0,4.0,67,-99.99,,,-99.99,,2013-06-23 22:22:00,
2013-06-23 15:32:00,69.0,58.0,29.69,ENE,64,1.0,4.0,68,-99.99,,,-99.99,,2013-06-23 22:32:00,
2013-06-23 15:43:00,69.0,59.0,29.69,ENE,75,1.0,4.0,70,-99.99,,,-99.99,,2013-06-23 22:43:00,
2013-06-23 15:53:00,69.0,59.0,29.68,NNW,329,1.0,4.0,70,-99.99,,,-99.99,,2013-06-23 22:53:00,
2013-06-23 16:01:00,69.0,58.0,29.68,NE,52,3.0,4.0,69,-99.99,,,-99.99,,2013-06-23 23:01:00,
2013-06-23 16:11:00,69.0,58.0,29.68,NE,52,3.0,4.0,69,-99.99,,,-99.99,,2013-06-23 23:11:00,
2013-06-23 16:22:00,69.0,59.0,29.68,NE,53,0.0,5.0,70,-99.99,,,-99.99,,2013-06-23 23:22:00,
2013-06-23 16:33:00,70.0,60.0,29.68,NE,44,1.0,3.0,70,-99.99,,,-99.99,,2013-06-23 23:33:00,
2013-06-23 16:44:00,70.0,59.0,29.67,ENE,77,2.0,3.0,68,-99.99,,,-99.99,,2013-06-23 23:44:00,
2013-06-23 16:52:00,70.0,58.0,29.67,NE,55,1.0,4.0,66,-99.99,,,-99.99,,2013-06-23 23:52:00,
2013-06-23 17:01:00,70.0,58.0,29.66,NE,49,1.0,4.0,66,-99.99,,,-99.99,,2013-06-24 00:01:00,
2013-06-23 17:11:00,69.0,56.0,29.66,ENE,75,1.0,4.0,63,-99.99,,,-99.99,,2013-06-24 00:11:00,
2013-06-23 17:33:00,70.0,57.0,29.66,East,82,1.0,3.0,63,-99.99,,,-99.99,,2013-06-24 00:33:00,
2013-06-23 17:42:00,70.0,57.0,29.65,East,81,0.0,3.0,64,-99.99,,,-99.99,,2013-06-24 00:42:00,
2013-06-23 17:52:00,70.0,59.0,29.65,East,81,0.0,3.0,67,-99.99,,,-99.99,,2013-06-24 00:52:00,
2013-06-23 18:01:00,70.0,58.0,29.65,East,82,1.0,3.0,66,-99.99,,,-99.99,,2013-06-24 01:01:00,
2013-06-23 18:11:00,69.0,58.0,29.64,East,81,1.0,3.0,68,-99.99,,,-99.99,,2013-06-24 01:11:00,
2013-06-23 18:21:00,69.0,58.0,29.64,East,81,0.0,3.0,69,-99.99,,,-99.99,,2013-06-24 01:21:00,
2013-06-23 18:32:00,69.0,59.0,29.63,East,81,0.0,2.0,70,-99.99,,,-99.99,,2013-06-24 01:32:00,
2013-06-23 18:42:00,69.0,59.0,29.63,East,80,0.0,2.0,70,-99.99,,,-99.99,,2013-06-24 01:42:00,
2013-06-23 18:52:00,69.0,60.0,29.63,East,80,0.0,1.0,72,-99.99,,,-99.99,,2013-06-24 01:52:00,
2013-06-23 19:01:00,69.0,60.0,29.63,ESE,115,0.0,4.0,73,-99.99,,,-99.99,,2013-06-24 02:01:00,
2013-06-23 19:11:00,69.0,60.0,29.63,ESE,115,0.0,4.0,73,-99.99,,,-99.99,,2013-06-24 02:11:00,
2013-06-23 19:33:00,68.0,60.0,29.63,SSE,156,0.0,1.0,75,-99.99,,,-99.99,,2013-06-24 02:33:00,
2013-06-23 19:42:00,68.0,60.0,29.62,ENE,68,0.0,3.0,76,-99.99,,,-99.99,,2013-06-24 02:42:00,
2013-06-23 19:53:00,68.0,61.0,29.62,ENE,68,0.0,1.0,78,-99.99,,,-99.99,,2013-06-24 02:53:00,
2013-06-23 20:01:00,67.0,60.0,29.62,ENE,68,0.0,1.0,79,-99.99,,,-99.99,,2013-06-24 03:01:00,
2013-06-23 20:11:00,67.0,61.0,29.62,ENE,68,0.0,1.0,80,-99.99,,,-99.99,,2013-06-24 03:11:00,
2013-06-23 20:22:00,67.0,61.0,29.62,ENE,68,0.0,1.0,81,-99.99,,,-99.99,,2013-06-24 03:22:00,
2013-06-23 20:33:00,66.0,60.0,29.61,ENE,69,0.0,2.0,82,-99.99,,,-99.99,,2013-06-24 03:33:00,
2013-06-23 20:42:00,66.0,61.0,29.60,ENE,69,0.0,2.0,85,-99.99,,,-99.99,,2013-06-24 03:42:00,
2013-06-23 20:53:00,66.0,62.0,29.60,ENE,69,0.0,1.0,86,-99.99,,,-99.99,,2013-06-24 03:53:00,
2013-06-23 21:01:00,66.0,61.0,29.60,ENE,68,0.0,2.0,85,-99.99,,,-99.99,,2013-06-24 04:01:00,
2013-06-23 21:11:00,65.0,60.0,29.59,ENE,67,0.0,3.0,85,-99.99,,,-99.99,,2013-06-24 04:11:00,
2013-06-23 21:22:00,65.0,61.0,29.59,ENE,67,0.0,1.0,86,-99.99,,,-99.99,,2013-06-24 04:22:00,
2013-06-23 21:33:00,65.0,61.0,29.59,ENE,67,0.0,1.0,86,-99.99,,,-99.99,,2013-06-24 04:33:00,
2013-06-23 21:43:00,65.0,61.0,29.59,ENE,67,0.0,1.0,86,-99.99,,,-99.99,,2013-06-24 04:43:00,
2013-06-23 21:52:00,65.0,61.0,29.59,ENE,67,1.0,2.0,87,-99.99,,,-99.99,,2013-06-24 04:52:00,
2013-06-23 22:02:00,64.0,60.0,29.59,ENE,67,0.0,0.0,87,-99.99,,,-99.99,,2013-06-24 05:02:00,
2013-06-23 22:12:00,64.0,60.0,29.59,ENE,67,0.0,1.0,87,-99.99,,,-99.99,,2013-06-24 05:12:00,
2013-06-23 22:22:00,64.0,60.0,29.59,ENE,67,0.0,0.0,87,-99.99,,,-99.99,,2013-06-24 05:22:00,
2013-06-23 22:33:00,64.0,60.0,29.59,ENE,67,0.0,1.0,87,-99.99,,,-99.99,,2013-06-24 05:33:00,
2013-06-23 22:43:00,64.0,60.0,29.59,ENE,67,0.0,0.0,88,-99.99,,,-99.99,,2013-06-24 05:43:00,
2013-06-23 23:01:00,64.0,61.0,29.60,ENE,67,0.0,0.0,90,-99.99,,,-99.99,,2013-06-24 06:01:00,
2013-06-23 23:12:00,64.0,61.0,29.60,ENE,67,0.0,1.0,91,-99.99,,,-99.99,,2013-06-24 06:12:00,
2013-06-23 23:22:00,64.0,62.0,29.60,South,176,0.0,3.0,92,-99.99,,,-99.99,,2013-06-24 06:22:00,
2013-06-23 23:43:00,63.0,61.0,29.59,South,176,0.0,0.0,92,-99.99,,,-99.99,,2013-06-24 06:43:00,
2013-06-23 23:52:00,63.0,61.0,29.59,South,182,0.0,3.0,92,-99.99,,,-99.99,,2013-06-24 06:52:00,